User: anonymous   Login
Location: Unspecified
(0.0000°N, 0.0000°E)
Time: 15:48:37
(UTC+02:00)
Language:

Cosmos 2279 Rocket - Orbit

View from above orbital plane
View from above orbital plane
View from above satellite
View from above satellite

Ground track
Ground track

The orbit data is extracted from the following two-line orbital elements,

1 23093U 94024B   18171.49766715 +.00000109 +00000-0 +93881-4 0  9992
2 23093 082.9458 200.5434 0011364 057.2281 302.9970 13.77764384681907
Epoch (UTC): 20 June 2018 11:56:38
Eccentricity: 0.0011364
inclination: 82.9458°
perigee height: 963 km
apogee height: 980 km
right ascension of ascending node: 200.5434°
argument of perigee: 57.2281°
revolutions per day: 13.77764384
mean anomaly at epoch: 302.9970°
orbit number at epoch: 68190

The dashed part of the orbit path shows where the satellite is in the earth's shadow,  

DLR